Regional Weather Roundup
Issued by NWS State College, PA

Home | Current Version | Previous Version | Graphics & Text | Print | Product List | Glossary Off
Versions: 1 2 3 4 5 6 7 8 9 10 11 12 13 14 15 16 17 18 19 20 21 22 23 24 25 26 27 28 29 30 31 32 33 34 35 36 37 38 39 40 41 42 43 44 45 46 47 48 49 50

339
ASUS41 KCTP 261610
RWRCTP

REGIONAL WEATHER ROUNDUP
NATIONAL WEATHER SERVICE STATE COLLEGE PA
1100 AM EST SUN FEB 26 2017

Note: "fair" indicates few or no clouds below 12,000 feet with no
significant weather and/or obstructions to visibility.

* = STATION THAT DOES NOT REPORT PRECIPITATION /E.G. RAIN...SNOW...ETC/
    THUNDER OR FOG.

PAZ002>004-007>009-013>016-020>023-029>032-261700-
WESTERN PENNSYLVANIA

CITY           SKY/WX    TMP DP  RH WIND       PRES   REMARKS
ERIE           CLOUDY    29  15  56 SW14G21   30.12R
MEADVILLE      CLOUDY    25  17  72 W10       30.09R WCI  15
FRANKLIN*      CLOUDY    25  14  63 W12       30.11R WCI  14
NEW CASTLE     FLURRIES  27  16  63 W12       30.16R
BEAVER COUNTY  CLOUDY    28  16  59 W9        30.14R
BUTLER*        PTSUNNY   28  14  54 W10G16    30.14R
PITTSBURGH INT FLURRIES  30  20  66 W16       30.14R
PITTSBURGH     LGT SNOW  29  21  72 W9        30.13R
INDIANA*       CLOUDY    28  18  64 W14G20    30.13R
LATROBE        FLURRIES  28  23  80 W16       30.14R
WASHINGTON CO* CLOUDY    30  18  59 W9        30.16R
$$

PAZ004>006-010>012-017>019-024>028-033>037-041-042-045-046-049>053-261700-
CENTRAL PENNSYLVANIA

CITY           SKY/WX    TMP DP  RH WIND       PRES   REMARKS
BRADFORD       CLOUDY    23  12  62 W14G22    30.00R WCI  11
DUBOIS         CLOUDY    25  13  60 W10       30.05R WCI  15
CLEARFIELD       N/A    N/A N/A N/A MISG      30.07R
JOHNSTOWN      LGT SNOW  24  20  84 W16G25    30.03R FOG     WCI  11
ALTOONA        LGT SNOW  28  21  75 NW13      30.08R
STATE COLLEGE  PTSUNNY   30  14  51 W14G24    30.07R
WILLIAMSPORT   CLOUDY    34  16  47 W14G22    30.07R
SELINSGROVE    CLOUDY    34  16  47 W12G18    30.09S
FT INDIANTOWN  CLOUDY    35  12  39 NW15G26   30.09R
CAPITAL CITY   PTSUNNY   38  13  35 W12       30.11R
HARRISBURG     PTSUNNY   37  15  40 NW18      30.11R
YORK           PTSUNNY   35  17  47 W14G22    30.11R
$$

PAZ038>040-043-044-047-048-054-055-060>062-067>071-261700-
EASTERN PENNSYLVANIA

CITY           SKY/WX    TMP DP  RH WIND       PRES   REMARKS
SCRANTON       CLOUDY    32  15  49 NW18G28   30.01S
MOUNT POCONO   CLOUDY    26  13  57 NW21G33   29.94R WCI  12
ALLENTOWN      CLOUDY    36  17  46 NW9       30.05R
QUAKERTOWN*    CLOUDY    36  16  44 W10       30.06R
READING        CLOUDY    37  17  44 NW15G23   30.08R
LANCASTER      PTSUNNY   38  16  40 NW21G29   30.10R
COATESVILLE    MOSUNNY   36  14  41 NW20G26   30.09R
POTTSTOWN      CLOUDY    35  16  45 W16G23    30.09R
BLUE BELL      PTSUNNY   36  19  51 W12G17    30.07R
DOYLESTOWN     CLOUDY    37  18  46 NW13G25   30.05R
WILLOW GROVE   NOT AVBL
NORTH PHILA    CLOUDY    41  18  39 W15       30.09R
PHILADELPHIA   PTSUNNY   38  16  40 W20G32    30.10R
$$




USA.gov is the U.S. government's official web portal to all federal, state and local government web resources and services.